Hyannis, MA

8:45 AM EDT on July 22, 2017 (GMT -0400)
Barnstable Municipal-Boardman-Polando Field

Weather History for KHYA - April, 2012

Change the Weather History Date:

Monday, April 23, 2012

  Actual Average Record
Temperature  
Mean Temperature 56 °F -  
Max Temperature 61 °F 56 °F 75 °F (1962)
Min Temperature 50 °F 39 °F 27 °F (1965)
Degree Days  
Heating Degree Days 10    
Growing Degree Days 6 (Base 50)    
Moisture  
Dew Point 53 °F    
Average Humidity 93    
Maximum Humidity 100    
Minimum Humidity 80    
Precipitation  
Precipitation 0.62 in - - ()
Sea Level Pressure  
Sea Level Pressure 29.40 in    
Wind  
Wind Speed 14 mph (South)    
Max Wind Speed 21 mph    
Max Gust Speed 34 mph    
Visibility 6 miles    
Events Rain    
Averages and records for this station are not official NWS values.
T = Trace of Precipitation, MM = Missing Value Source: NWS Daily Summary

Daily Weather History Graph

Daily Weather History Graph

Search for Another Location

Airport or City:

Trip Planner

Search our weather history database for the weather conditions in past years. The results will help you decide how hot, cold, wet, or windy it might be!

Date:

Astronomy

Apr. 23, 2012 Rise Set
Actual Time 5:48 AM EDT 7:31 PM EDT
Civil Twilight 5:18 AM EDT 8:00 PM EDT
Nautical Twilight 4:43 AM EDT 8:36 PM EDT
Astronomical Twilight 4:04 AM EDT 9:15 PM EDT
Moon 6:55 AM EDT (4/23) 10:00 PM EDT (4/23)
Length of Visible Light 14h 41m
Length of Day
13h 42m
Waxing Crescent, 5% of the Moon is Illuminated
Apr 23
Waxing Crescent
Apr 29
First Quarter
May 5
Full
May 12
Last Quarter
May 20
New

Hourly Weather History & Observations

Time (EDT) Temp. Dew Point Humidity Pressure Visibility Wind Dir Wind Speed Gust Speed Precip Events Conditions
12:56 AM 57.0 °F 55.0 °F 93% 29.53 in 5.0 mi ESE 11.5 mph 20.7 mph 0.02 in Rain Light Rain
1:21 AM 57.2 °F 55.4 °F 94% 29.51 in 4.0 mi SE 16.1 mph 25.3 mph 0.07 in Rain Light Rain
1:36 AM 57.2 °F 55.4 °F 94% 29.49 in 4.0 mi SE 15.0 mph 31.1 mph 0.10 in Rain Rain
1:47 AM 57.2 °F 55.4 °F 94% 29.47 in 4.0 mi ESE 18.4 mph 27.6 mph 0.14 in Rain Rain
1:56 AM 57.0 °F 55.9 °F 96% 29.47 in 3.0 mi SE 15.0 mph 31.1 mph 0.17 in Rain Rain
2:31 AM 57.2 °F 55.4 °F 94% 29.43 in 3.0 mi SE 20.7 mph 31.1 mph 0.12 in Rain Rain
2:56 AM 57.0 °F 55.9 °F 96% 29.42 in 2.5 mi SE 16.1 mph 34.5 mph 0.19 in Rain Rain
3:10 AM 57.2 °F 55.4 °F 94% 29.41 in 5.0 mi SE 15.0 mph 31.1 mph 0.01 in Rain Light Rain
3:56 AM 57.2 °F 57.2 °F 100% 29.40 in 5.0 mi SSE 17.3 mph 34.5 mph N/A Rain Light Rain
4:56 AM 57.9 °F 55.9 °F 93% 29.39 in 7.0 mi SSE 17.3 mph 28.8 mph 0.00 in   Overcast
5:56 AM 55.9 °F 55.0 °F 97% 29.37 in 5.0 mi SE 16.1 mph 26.5 mph 0.06 in Rain Light Rain
6:56 AM 57.0 °F 55.0 °F 93% 29.37 in 4.0 mi SSE 15.0 mph 31.1 mph 0.02 in Rain Light Rain
7:56 AM 57.0 °F 55.9 °F 96% 29.37 in 8.0 mi SSE 16.1 mph 24.2 mph 0.05 in Rain Light Rain
8:47 AM 57.2 °F 55.4 °F 94% 29.35 in 9.0 mi SE 16.1 mph 28.8 mph 0.00 in Rain Light Rain
8:56 AM 57.9 °F 55.9 °F 93% 29.35 in 8.0 mi SSE 11.5 mph 29.9 mph 0.00 in Rain Light Rain
9:56 AM 57.9 °F 57.0 °F 97% 29.35 in 9.0 mi SSE 13.8 mph 29.9 mph 0.01 in Rain Light Rain
10:03 AM 59.0 °F 57.2 °F 94% 29.34 in 8.0 mi SSE 17.3 mph 29.9 mph 0.00 in Rain Light Rain
10:56 AM 61.0 °F 57.9 °F 90% 29.34 in 10.0 mi SSE 12.7 mph 27.6 mph 0.00 in   Overcast
11:56 AM 59.0 °F 57.0 °F 93% 29.35 in 8.0 mi South 13.8 mph 25.3 mph N/A   Overcast
12:56 PM 59.0 °F 57.0 °F 93% 29.34 in 5.0 mi SSE 11.5 mph 21.9 mph N/A   Overcast
1:24 PM 57.2 °F 57.2 °F 100% 29.34 in 2.5 mi SSE 12.7 mph 20.7 mph N/A   Overcast
1:32 PM 59.0 °F 57.2 °F 94% 29.34 in 3.0 mi South 11.5 mph 20.7 mph N/A   Overcast
1:47 PM 57.2 °F 57.2 °F 100% 29.35 in 1.8 mi South 15.0 mph 23.0 mph 0.00 in Rain Light Rain
1:56 PM 57.9 °F 57.0 °F 97% 29.35 in 1.2 mi South 13.8 mph 21.9 mph 0.00 in Rain Light Rain
2:45 PM 55.4 °F 55.4 °F 100% 29.34 in 2.0 mi South 10.4 mph 17.3 mph 0.00 in Rain Light Rain
2:56 PM 55.9 °F 55.9 °F 100% 29.34 in 1.5 mi SSW 10.4 mph - 0.00 in Rain Light Rain
3:56 PM 55.0 °F 54.0 °F 96% 29.37 in 3.0 mi SSW 10.4 mph - 0.05 in Rain Light Rain
4:17 PM 53.6 °F 53.6 °F 100% 29.34 in 6.0 mi WSW 12.7 mph - 0.04 in Rain Light Rain
4:32 PM 53.6 °F 53.6 °F 100% 29.35 in 10.0 mi SW 11.5 mph - 0.05 in Rain Light Rain
4:56 PM 54.0 °F 51.1 °F 90% 29.37 in 10.0 mi SW 13.8 mph 24.2 mph 0.05 in   Overcast
5:24 PM 53.6 °F 50.0 °F 88% 29.38 in 10.0 mi SSW 15.0 mph 26.5 mph N/A   Overcast
5:31 PM 53.6 °F 48.2 °F 82% 29.38 in 10.0 mi SSW 18.4 mph 25.3 mph N/A   Overcast
5:56 PM 52.0 °F 48.0 °F 86% 29.38 in 10.0 mi SSW 13.8 mph 23.0 mph N/A   Overcast
6:56 PM 52.0 °F 46.9 °F 83% 29.41 in 10.0 mi SSW 15.0 mph 24.2 mph N/A   Overcast
7:56 PM 51.1 °F 46.0 °F 83% 29.44 in 10.0 mi SSW 15.0 mph 21.9 mph N/A   Mostly Cloudy
8:20 PM 51.8 °F 46.4 °F 82% 29.43 in 10.0 mi SSW 13.8 mph 21.9 mph N/A   Overcast
8:56 PM 51.1 °F 45.0 °F 80% 29.46 in 10.0 mi SW 17.3 mph - N/A   Overcast
9:56 PM 50.0 °F 45.0 °F 83% 29.47 in 10.0 mi SSW 13.8 mph 19.6 mph 0.00 in Rain Light Rain
10:56 PM 51.1 °F 46.0 °F 83% 29.50 in 10.0 mi SSW 13.8 mph 19.6 mph 0.00 in   Overcast
11:56 PM 50.0 °F 46.0 °F 86% 29.48 in 10.0 mi South 10.4 mph - 0.00 in   Overcast